Location: Nelson
(41.2830°S, 173.2830°E)
Time: 09:38:50
(UTC+13:00)

ISS - Pass Details

Date: 28 January 2019
Orbit: 411 x 421 km, 51.6° (Epoch: 21 October)

Event Time Altitude Azimuth Distance (km) Brightness Sun altitude
Exits shadow 05:31:00 11° 335° (NNW) 1,434 -1.6 -9.9°
Maximum altitude 05:33:58 37° 43° (NE) 673 -2.7 -9.4°
Drops below altitude 10° 05:37:07 10° 111° (ESE) 1,510 0.6 -8.9°
Sets 05:39:19 0° 120° (ESE) 2,378 2.5 -8.6°
